Change the Weather History Date:

Saturday, November 15, 2014

  Actual Average Record
Temperature  
Mean Temperature 39 °F 38 °F  
Max Temperature 49 °F 50 °F 64 °F (1998)
Min Temperature 29 °F 25 °F 15 °F (1997)
Degree Days  
Heating Degree Days 26 27  
Month to date heating degree days 355 365  
Since 1 July heating degree days 777 956  
Cooling Degree Days 0 0  
Month to date cooling degree days 0 0  
Year to date cooling degree days 782 643  
Moisture  
Dew Point 28 °F    
Average Humidity 70    
Maximum Humidity 100    
Minimum Humidity 39    
Precipitation  
Precipitation T in 0.03 in 0.24 in (1996)
Month to date precipitation 0.17 0.44  
Year to date precipitation 8.61 10.28  
Sea Level Pressure  
Sea Level Pressure 29.89 in    
Wind  
Wind Speed 8 mph (West)    
Max Wind Speed 21 mph    
Max Gust Speed 27 mph    
Visibility 8 miles    
Events Fog , Snow    
T = Trace of Precipitation, MM = Missing Value Source: NWS Daily Summary

Daily Weather History Graph

Daily Weather History Graph

Search for Another Location

Airport or City:

Trip Planner

Search our weather history database for the weather conditions in past years. The results will help you decide how hot, cold, wet, or windy it might be!

Date:

Astronomy

Nov. 15, 2014 Rise Set
Actual Time 6:53 AM MST 4:58 PM MST
Civil Twilight 6:25 AM MST 5:26 PM MST
Nautical Twilight 5:53 AM MST 5:58 PM MST
Astronomical Twilight 5:21 AM MST 6:30 PM MST
Moon 12:13 AM MST (11/15) 1:18 PM MST (11/15)
Length of Visible Light 11h 01m
Length of Day
10h 05m
Last Quarter, 39% of the Moon is Illuminated
Nov 15
Last Quarter
Nov 22
New
Nov 29
First Quarter
Dec 6
Full
Dec 14
Last Quarter

Hourly Weather History & Observations

Time (MST) Temp. Windchill Dew Point Humidity Pressure Visibility Wind Dir Wind Speed Gust Speed Precip Events Conditions
12:53 AM 34.0 °F 31.0 °F 32.0 °F 92% 29.86 in 8.0 mi North 3.5 mph - N/A   Overcast
1:53 AM 30.9 °F 27.5 °F 30.0 °F 96% 29.88 in 7.0 mi WSW 3.5 mph - N/A   Partly Cloudy
2:53 AM 30.9 °F 25.2 °F 30.0 °F 96% 29.88 in 7.0 mi ESE 5.8 mph - N/A   Mostly Cloudy
3:46 AM 30.9 °F 23.5 °F 30.0 °F 96% 29.93 in 1.8 mi SE 8.1 mph - N/A   Mostly Cloudy
3:48 AM 30.2 °F 22.6 °F 30.2 °F 100% 29.93 in 1.0 mi SE 8.1 mph - N/A   Mostly Cloudy
3:53 AM 30.9 °F 24.3 °F 30.9 °F 100% 29.89 in 0.5 mi SE 6.9 mph - N/A Fog Light Freezing Fog
4:45 AM 30.9 °F 25.2 °F 30.9 °F 100% 29.92 in 1.0 mi South 5.8 mph - N/A   Overcast
4:53 AM 30.0 °F 24.1 °F 30.0 °F 100% 29.90 in 1.5 mi SE 5.8 mph - N/A   Overcast
4:56 AM 30.0 °F 25.2 °F 28.9 °F 96% 29.92 in 2.0 mi ESE 4.6 mph - N/A   Mostly Cloudy
5:01 AM 30.0 °F 24.1 °F 30.0 °F 100% 29.91 in 4.0 mi ESE 5.8 mph - N/A   Mostly Cloudy
5:53 AM 30.9 °F 23.5 °F 30.0 °F 96% 29.89 in 10.0 mi SE 8.1 mph - N/A   Clear
6:53 AM 30.0 °F - 28.9 °F 96% 29.92 in 10.0 mi Calm Calm - N/A   Overcast
7:53 AM 30.0 °F 24.1 °F 28.9 °F 96% 29.93 in 10.0 mi SE 5.8 mph - N/A   Partly Cloudy
8:53 AM 33.1 °F - 30.9 °F 92% 29.94 in 10.0 mi Calm Calm - N/A   Scattered Clouds
9:53 AM 43.0 °F - 34.0 °F 71% 29.92 in 10.0 mi Calm Calm - N/A   Mostly Cloudy
10:53 AM 45.0 °F 38.2 °F 30.0 °F 56% 29.90 in 10.0 mi WSW 15.0 mph - N/A   Overcast
11:53 AM 46.9 °F - 30.0 °F 52% 29.86 in 10.0 mi West 10.4 mph - N/A   Overcast
12:53 PM 48.0 °F - 27.0 °F 44% 29.83 in 10.0 mi West 12.7 mph - N/A   Overcast
1:53 PM 48.0 °F - 25.0 °F 41% 29.81 in 10.0 mi West 10.4 mph - N/A   Partly Cloudy
2:53 PM 46.0 °F 43.1 °F 28.0 °F 50% 29.81 in 10.0 mi NNW 5.8 mph - N/A   Scattered Clouds
3:53 PM 43.0 °F 36.4 °F 28.0 °F 56% 29.83 in 10.0 mi NNW 12.7 mph - N/A   Scattered Clouds
4:53 PM 43.0 °F 38.2 °F 26.1 °F 51% 29.82 in 10.0 mi WNW 8.1 mph - N/A   Partly Cloudy
5:53 PM 41.0 °F - 28.0 °F 60% 29.84 in 10.0 mi Calm Calm - N/A   Overcast
6:53 PM 37.0 °F 27.7 °F 30.0 °F 76% 29.88 in 10.0 mi NNW 16.1 mph 21.9 mph 0.00 in   Overcast
7:53 PM 34.0 °F 23.8 °F 30.0 °F 85% 29.91 in 10.0 mi NNW 16.1 mph - N/A   Overcast
8:03 PM 34.0 °F 24.6 °F 30.0 °F 85% 29.92 in 10.0 mi NW 13.8 mph 21.9 mph N/A   Overcast
8:29 PM 33.1 °F 21.9 °F 28.0 °F 82% 29.92 in 10.0 mi WNW 18.4 mph 24.2 mph N/A   Overcast
8:53 PM 32.0 °F 21.6 °F 27.0 °F 82% 29.91 in 10.0 mi WNW 15.0 mph - N/A   Overcast
9:53 PM 33.1 °F 24.9 °F 24.1 °F 70% 29.89 in 10.0 mi WNW 10.4 mph 19.6 mph N/A   Overcast
10:42 PM 32.0 °F 21.2 °F 21.0 °F 64% 29.97 in 10.0 mi NW 16.1 mph 26.5 mph 0.00 in Snow Light Snow
10:53 PM 32.0 °F 23.0 °F 21.9 °F 66% 29.91 in 9.0 mi WNW 11.5 mph - 0.00 in   Overcast
11:08 PM 30.0 °F 23.2 °F 24.1 °F 79% 29.97 in 10.0 mi West 6.9 mph - N/A   Overcast
11:53 PM 30.0 °F 24.1 °F 24.1 °F 79% 29.92 in 10.0 mi ESE 5.8 mph - N/A   Overcast